Time,TemperatureF,DewpointF,PressureIn,WindDirection,WindDirectionDegrees,WindSpeedMPH,WindSpeedGustMPH,Humidity,HourlyPrecipIn,Conditions,Clouds,dailyrainin,SolarRadiationWatts/m^2,SoftwareType,DateUTC
2013-05-15 00:02:00,66.0,57.0,-100.00,SSW,213,3.0,7.0,73,0.00,,,0.00,0.000000,,2013-05-15 05:02:00,
2013-05-15 00:32:00,64.0,58.0,-100.00,SW,216,3.0,5.0,80,0.00,,,0.00,0.000000,,2013-05-15 05:32:00,
2013-05-15 00:42:00,64.0,58.0,-100.00,SW,216,3.0,5.0,80,0.00,,,0.00,0.000000,,2013-05-15 05:42:00,
2013-05-15 00:52:00,64.0,58.0,-100.00,SW,216,3.0,5.0,80,0.00,,,0.00,0.000000,,2013-05-15 05:52:00,
2013-05-15 01:02:00,64.0,58.0,-100.00,SW,216,3.0,5.0,80,0.00,,,0.00,0.000000,,2013-05-15 06:02:00,
2013-05-15 01:32:00,63.0,58.0,-100.00,SSW,210,3.0,6.0,85,0.00,,,-99.99,0.000000,,2013-05-15 06:32:00,
2013-05-15 01:42:00,63.0,58.0,-100.00,SSW,210,3.0,6.0,85,0.00,,,-99.99,0.000000,,2013-05-15 06:42:00,
2013-05-15 01:52:00,63.0,58.0,-100.00,SSW,210,3.0,6.0,85,0.00,,,-99.99,0.000000,,2013-05-15 06:52:00,
2013-05-15 02:01:00,63.0,58.0,-100.00,SSW,210,3.0,6.0,85,0.00,,,-99.99,0.000000,,2013-05-15 07:01:00,
2013-05-15 02:32:00,62.0,58.0,-100.00,SW,225,3.0,8.0,87,0.00,,,0.00,0.000000,,2013-05-15 07:32:00,
2013-05-15 02:42:00,62.0,58.0,-100.00,SW,225,3.0,8.0,87,0.00,,,0.00,0.000000,,2013-05-15 07:42:00,
2013-05-15 02:52:00,62.0,58.0,-100.00,SW,225,3.0,8.0,87,0.00,,,0.00,0.000000,,2013-05-15 07:52:00,
2013-05-15 03:02:00,62.0,58.0,-100.00,SW,225,3.0,8.0,87,0.00,,,0.00,0.000000,,2013-05-15 08:02:00,
2013-05-15 03:32:00,62.0,57.0,-100.00,SW,223,3.0,11.0,84,0.00,,,0.00,0.000000,,2013-05-15 08:32:00,
2013-05-15 03:42:00,62.0,57.0,-100.00,SW,223,3.0,11.0,84,0.00,,,0.00,0.000000,,2013-05-15 08:42:00,
2013-05-15 03:53:00,62.0,57.0,-100.00,SW,223,3.0,11.0,84,0.00,,,0.00,0.000000,,2013-05-15 08:53:00,
2013-05-15 04:01:00,62.0,57.0,-100.00,SW,223,3.0,11.0,84,0.00,,,0.00,0.000000,,2013-05-15 09:01:00,
2013-05-15 04:33:00,60.0,56.0,-100.00,SW,221,2.0,7.0,88,0.00,,,0.00,0.000000,,2013-05-15 09:33:00,
2013-05-15 04:42:00,60.0,56.0,-100.00,SW,221,2.0,7.0,88,0.00,,,0.00,0.000000,,2013-05-15 09:42:00,
2013-05-15 04:53:00,60.0,56.0,-100.00,SW,221,2.0,7.0,88,0.00,,,0.00,0.000000,,2013-05-15 09:53:00,
2013-05-15 05:02:00,60.0,56.0,-100.00,SW,221,2.0,7.0,88,0.00,,,0.00,0.000000,,2013-05-15 10:02:00,
2013-05-15 05:09:00,58.0,56.0,-100.00,SW,214,1.0,4.0,93,0.00,,,0.00,0.000000,,2013-05-15 10:09:00,
2013-05-15 05:32:00,58.0,56.0,-100.00,SW,214,1.0,4.0,93,0.00,,,0.00,0.000000,,2013-05-15 10:32:00,
2013-05-15 05:43:00,58.0,56.0,-100.00,SW,214,1.0,4.0,93,0.00,,,0.00,0.000000,,2013-05-15 10:43:00,
2013-05-15 05:52:00,58.0,56.0,-100.00,SW,214,1.0,4.0,93,0.00,,,0.00,0.000000,,2013-05-15 10:52:00,
2013-05-15 06:39:00,56.0,55.0,-100.00,SSW,203,0.0,2.0,95,0.00,,,0.00,1.000000,,2013-05-15 11:39:00,
2013-05-15 06:50:00,56.0,55.0,-100.00,SSW,203,0.0,2.0,95,0.00,,,0.00,1.000000,,2013-05-15 11:50:00,
2013-05-15 07:00:00,56.0,55.0,-100.00,SSW,203,0.0,2.0,95,0.00,,,0.00,1.000000,,2013-05-15 12:00:00,
2013-05-15 07:07:00,56.0,55.0,-100.00,SSW,203,0.0,2.0,95,0.00,,,0.00,1.000000,,2013-05-15 12:07:00,
2013-05-15 07:38:00,61.0,58.0,-100.00,SSW,204,0.0,2.0,91,0.00,,,0.00,59.000000,,2013-05-15 12:38:00,
2013-05-15 07:49:00,61.0,58.0,-100.00,SSW,204,0.0,2.0,91,0.00,,,0.00,59.000000,,2013-05-15 12:49:00,
2013-05-15 07:57:00,61.0,58.0,-100.00,SSW,204,0.0,2.0,91,0.00,,,0.00,59.000000,,2013-05-15 12:57:00,
2013-05-15 09:39:00,74.0,62.0,-100.00,SW,234,2.0,6.0,67,-99.99,,,0.00,345.000000,,2013-05-15 14:39:00,
2013-05-15 09:59:00,74.0,62.0,-100.00,SW,234,2.0,6.0,67,-99.99,,,0.00,345.000000,,2013-05-15 14:59:00,
2013-05-15 10:08:00,74.0,62.0,-100.00,SW,234,2.0,6.0,67,-99.99,,,0.00,345.000000,,2013-05-15 15:08:00,
2013-05-15 10:09:00,78.0,62.0,-100.00,SSW,213,3.0,7.0,57,0.00,,,0.00,536.000000,,2013-05-15 15:09:00,
2013-05-15 10:40:00,78.0,62.0,-100.00,SSW,213,3.0,7.0,57,0.00,,,0.00,536.000000,,2013-05-15 15:40:00,
2013-05-15 11:01:00,78.0,62.0,-100.00,SSW,213,3.0,7.0,57,0.00,,,0.00,536.000000,,2013-05-15 16:01:00,
2013-05-15 11:09:00,80.0,59.0,-100.00,SW,219,4.0,8.0,49,0.00,,,0.00,660.000000,,2013-05-15 16:09:00,
2013-05-15 11:51:00,80.0,59.0,-100.00,SW,219,4.0,8.0,49,0.00,,,0.00,660.000000,,2013-05-15 16:51:00,
2013-05-15 11:59:00,80.0,59.0,-100.00,SW,219,4.0,8.0,49,0.00,,,0.00,660.000000,,2013-05-15 16:59:00,
2013-05-15 13:38:00,84.0,58.0,-100.00,SSW,203,3.0,10.0,42,-99.99,,,0.00,790.000000,,2013-05-15 18:38:00,
2013-05-15 13:49:00,84.0,58.0,-100.00,SSW,203,3.0,10.0,42,-99.99,,,0.00,790.000000,,2013-05-15 18:49:00,
2013-05-15 13:57:00,84.0,58.0,-100.00,SSW,203,3.0,10.0,42,-99.99,,,0.00,790.000000,,2013-05-15 18:57:00,
2013-05-15 14:08:00,84.0,58.0,-100.00,SSW,203,3.0,10.0,42,-99.99,,,0.00,790.000000,,2013-05-15 19:08:00,
2013-05-15 14:39:00,85.0,59.0,-100.00,SW,218,4.0,8.0,42,0.00,,,0.00,794.000000,,2013-05-15 19:39:00,
2013-05-15 14:49:00,85.0,59.0,-100.00,SW,218,4.0,8.0,42,0.00,,,0.00,794.000000,,2013-05-15 19:49:00,
2013-05-15 14:56:00,85.0,59.0,-100.00,SW,218,4.0,8.0,42,0.00,,,0.00,794.000000,,2013-05-15 19:56:00,
2013-05-15 15:07:00,85.0,59.0,-100.00,SW,218,4.0,8.0,42,0.00,,,0.00,794.000000,,2013-05-15 20:07:00,
2013-05-15 15:40:00,85.0,59.0,-100.00,SSW,205,3.0,10.0,42,0.00,,,0.00,673.000000,,2013-05-15 20:40:00,
2013-05-15 15:47:00,85.0,59.0,-100.00,SSW,205,3.0,10.0,42,0.00,,,0.00,673.000000,,2013-05-15 20:47:00,
2013-05-15 16:07:00,85.0,59.0,-100.00,SSW,205,3.0,10.0,42,0.00,,,0.00,673.000000,,2013-05-15 21:07:00,
2013-05-15 16:53:00,82.0,60.0,-100.00,SW,219,3.0,8.0,47,0.00,,,-99.99,429.000000,,2013-05-15 21:53:00,
2013-05-15 17:00:00,82.0,60.0,-100.00,SW,219,3.0,8.0,47,0.00,,,-99.99,429.000000,,2013-05-15 22:00:00,
2013-05-15 17:42:00,80.0,61.0,-100.00,SSW,210,2.0,9.0,53,0.00,,,0.00,289.000000,,2013-05-15 22:42:00,
2013-05-15 17:52:00,80.0,61.0,-100.00,SSW,210,2.0,9.0,53,0.00,,,0.00,289.000000,,2013-05-15 22:52:00,
2013-05-15 17:59:00,80.0,61.0,-100.00,SSW,210,2.0,9.0,53,0.00,,,0.00,289.000000,,2013-05-15 22:59:00,
2013-05-15 18:07:00,80.0,61.0,-100.00,SSW,210,2.0,9.0,53,0.00,,,0.00,289.000000,,2013-05-15 23:07:00,
2013-05-15 18:39:00,77.0,61.0,-100.00,SW,216,1.0,5.0,57,0.00,,,0.00,105.000000,,2013-05-15 23:39:00,
2013-05-15 18:50:00,77.0,61.0,-100.00,SW,216,1.0,5.0,57,0.00,,,0.00,105.000000,,2013-05-15 23:50:00,
2013-05-15 19:00:00,77.0,61.0,-100.00,SW,216,1.0,5.0,57,0.00,,,0.00,105.000000,,2013-05-16 00:00:00,
2013-05-15 19:05:00,77.0,61.0,-100.00,SW,216,1.0,5.0,57,0.00,,,0.00,105.000000,,2013-05-16 00:05:00,
2013-05-15 20:40:00,70.0,57.0,-100.00,SW,220,1.0,7.0,64,-99.99,,,0.00,9.000000,,2013-05-16 01:40:00,
2013-05-15 20:49:00,70.0,57.0,-100.00,SW,220,1.0,7.0,64,-99.99,,,0.00,9.000000,,2013-05-16 01:49:00,
2013-05-15 21:00:00,70.0,57.0,-100.00,SW,220,1.0,7.0,64,-99.99,,,0.00,9.000000,,2013-05-16 02:00:00,
2013-05-15 21:07:00,70.0,57.0,-100.00,SW,220,1.0,7.0,64,-99.99,,,0.00,9.000000,,2013-05-16 02:07:00,
2013-05-15 21:40:00,69.0,57.0,-100.00,SSW,209,2.0,5.0,66,0.00,,,0.00,0.000000,,2013-05-16 02:40:00,
2013-05-15 21:55:00,69.0,57.0,-100.00,SSW,209,2.0,5.0,66,0.00,,,0.00,0.000000,,2013-05-16 02:55:00,
2013-05-15 22:07:00,69.0,57.0,-100.00,SSW,209,2.0,5.0,66,0.00,,,0.00,0.000000,,2013-05-16 03:07:00,
2013-05-15 22:40:00,68.0,56.0,-100.00,SW,220,2.0,6.0,66,0.00,,,0.00,0.000000,,2013-05-16 03:40:00,
2013-05-15 22:47:00,68.0,56.0,-100.00,SW,220,2.0,6.0,66,0.00,,,0.00,0.000000,,2013-05-16 03:47:00,
2013-05-15 22:56:00,68.0,56.0,-100.00,SW,220,2.0,6.0,66,0.00,,,0.00,0.000000,,2013-05-16 03:56:00,
2013-05-15 23:02:00,68.0,56.0,-100.00,SW,220,2.0,6.0,66,0.00,,,0.00,0.000000,,2013-05-16 04:02:00,
2013-05-15 23:33:00,66.0,57.0,-100.00,SSW,211,1.0,5.0,73,0.00,,,0.00,0.000000,,2013-05-16 04:33:00,
2013-05-15 23:42:00,66.0,57.0,-100.00,SSW,211,1.0,5.0,73,0.00,,,0.00,0.000000,,2013-05-16 04:42:00,
2013-05-15 23:53:00,66.0,57.0,-100.00,SSW,211,1.0,5.0,73,0.00,,,0.00,0.000000,,2013-05-16 04:53:00,